Vertical_Velocity
1 -3 -4 7 4 1 10 1 2 6 0 -1 -1 -1 0 1 -1 -3 -1 -3 -0 1 -1 -2 -2 -0 -1 -0 -0 0 -0 -1 -2 -1 -2 -1 -2 1 -0 -1 -2 -0 -2 -0
-5 -2 5 5 2 0 -1 1 -1 4 -0 -2 0 -0 -0 -1 0 -2 -1 -1 -3 -0 0 1 -0 -1 -1 -1 -1 -1 -0 -1 -2 -2 -2 -1 0 -0 -1 -1 -0 1 -1 -1
3 13 1 -2 3 -1 1 -4 0 3 3 2 -3 -1 -1 -1 -0 -1 -2 -4 -2 -1 -1 -1 -1 -1 -1 -1 -1 -1 -1 0 -1 -2 -2 -1 -0 -2 -2 -1 1 0 0 -0
3 -0 -1 1 -2 4 3 0 4 5 -5 -2 1 1 -1 -0 1 -2 -2 -3 -0 -2 -0 0 -0 -0 -1 -1 -2 -1 -0 -1 -1 -2 -0 -3 -3 -2 -2 -1 0 -1 -1 -1
9 -3 5 -4 7 1 3 13 5 5 1 2 -4 -1 4 -7 -4 -1 -2 -2 -2 -1 -1 -1 -2 -0 1 1 -1 1 -1 -2 -1 -0 0 -1 -1 -1 -1 -1 -2 -2 -2 -4
3 8 -5 8 5 -2 16 -4 6 5 2 -0 -0 -5 -1 0 7 0 -1 -1 -3 -1 -0 -1 -3 -1 -0 -0 2 -0 -2 -0 1 -1 -1 -1 -1 -1 -1 -2 -1 -1 -0 0
9 -5 -3 5 -1 4 2 4 -2 -4 -6 -14 5 -12 4 4 4 6 2 0 1 -2 -5 -0 -1 -0 -3 -2 -2 -2 -1 -1 1 -1 -0 -1 -0 -2 -2 -3 -4 -3 -2 -3
1 -24 -0 9 -1 4 -8 -2 -3 -3 0 -4 -2 -16 -3 12 6 -4 -2 0 0 -1 -3 -1 -1 -3 -1 -2 -1 0 1 2 1 1 -1 -0 -2 -2 -3 -1 -1 -3 -4 -6
-5 -5 3 -7 9 1 8 -27 10 7 -2 1 10 -16 4 3 -2 -3 2 2 -1 0 -1 -0 -4 -3 -1 -2 1 -0 -1 -0 2 0 0 1 1 -2 -0 -3 -0 -1 2 -0
-1 -2 -1 10 10 -0 -26 46 -8 -4 3 4 -10 -3 3 5 -1 2 2 -0 4 -1 2 2 -4 -3 -2 -1 -2 -1 0 0 -2 -0 -0 -1 -1 0 -2 -6 -4 -5 -3 0
12 4 9 9 -30 7 -1 -11 -9 16 2 2 -9 -2 2 -2 -3 4 5 3 4 3 -0 0 2 -3 -2 -3 -2 -2 -1 -3 -1 0 -1 -1 -3 -0 -3 0 -2 2 -5 -1
13 5 -10 -10 24 22 16 2 -4 -0 -15 -8 -3 -3 -1 0 1 4 4 1 1 1 4 1 1 -1 -7 -0 -3 -1 -6 -3 -3 -4 -3 -4 -2 -1 -3 -4 -0 -3 -1 -4
4 -5 2 0 3 -3 -23 -6 7 -2 10 -4 -6 -3 1 -4 1 -0 -2 3 -1 1 2 2 -0 1 0 1 -1 -3 -2 0 -4 -3 -3 -4 -0 -1 -2 -4 -1 3 1 -1
-0 -0 -4 -10 14 23 6 13 13 8 -2 8 -4 9 -5 -5 -6 0 -1 -1 0 2 2 2 -1 -1 -0 -1 1 -1 -1 -2 -1 -1 -2 -1 -0 -3 -2 -2 0 5 -0 2
-3 -6 -3 4 4 9 2 -1 5 -13 5 -32 27 -8 -10 -3 -7 0 -3 1 -5 -7 7 4 2 2 3 -3 -2 -2 -4 -1 -2 -3 -2 -2 -2 0 -2 -3 -4 3 -0 3
-2 -3 0 -5 4 3 -4 0 -0 -2 -6 -1 2 -18 7 6 -7 -9 1 -3 -2 -2 -3 5 6 1 1 -1 -3 -5 -3 -2 -4 0 -2 -1 -1 -0 5 7 -0 11 -0 0
-6 5 -3 -1 3 10 5 -11 -3 -2 -6 2 -24 30 -8 -11 -18 -2 1 1 -3 3 1 -1 2 6 3 2 1 0 -2 -4 4 1 -2 -2 0 1 -2 2 2 1 -3 -4
-3 -4 -2 4 8 -11 -17 16 11 5 5 -5 6 3 -4 2 -4 2 -1 -3 -6 -1 5 4 -3 -3 2 3 -1 -3 -1 4 3 1 -1 -0 0 -1 1 -1 1 2 4 5
-1 0 1 -8 -3 2 -3 10 3 11 -6 -6 -6 -5 -0 0 1 -18 -0 -0 -0 -2 -4 4 2 -4 2 -2 1 -5 1 4 2 2 3 3 -1 2 2 9 -1 2 1 2
-3 2 -2 0 -3 4 13 -20 3 8 -27 3 1 -1 4 13 -30 18 -14 9 -2 -1 -1 1 2 1 1 -0 -3 1 1 1 2 0 -0 -1 -2 -2 -4 5 -3 -3 2 2
-4 3 -15 8 -5 11 -2 -9 3 5 -9 -6 1 7 7 -14 6 -2 2 7 -0 1 3 2 1 2 6 0 -1 -2 0 -1 1 -0 -2 -1 -2 3 3 0 -1 -3 2 1
4 4 -4 9 2 -15 7 -3 7 -3 -11 2 -3 6 3 2 -2 -1 1 6 -1 5 1 1 -3 2 5 0 -1 -2 7 7 2 1 -4 -4 -2 2 4 -2 2 -3 1 3
0 3 6 0 1 4 2 -5 9 -17 5 3 1 4 4 3 1 6 2 7 2 3 4 -0 -1 1 2 4 5 2 -3 -2 1 -1 -2 -0 -4 -5 -3 2 3 -2 0 3
-2 2 -7 12 -4 0 -4 -4 -2 -11 7 3 1 8 3 5 3 -3 8 2 5 5 3 4 4 3 7 4 -2 -9 -3 -4 -2 4 -3 4 -4 1 -3 3 -1 -4 -4 -2
-2 15 4 -7 2 -0 -7 -0 -8 0 4 5 4 1 9 14 9 4 5 2 2 4 3 -4 2 4 1 0 -2 1 -2 -2 3 5 -8 2 1 2 1 0 2 5 3 3
3 5 1 -11 -7 -4 -1 -3 -1 -3 0 6 11 1 6 5 7 4 6 7 12 -0 -8 8 11 10 7 -1 -0 2 1 3 -3 6 -6 4 -0 0 -2 1 1 2 -2 0
Height
5874 5877 5880 5887 5892 5898 5905 5906 5909 5910 5909 5910 5910 5911 5912 5911 5912 5913 5913 5914 5915 5917 5918 5919 5920 5921 5922 5923 5924 5925 5926 5927 5927 5927 5928 5929 5928 5927 5926 5926 5927 5927 5927 5926
5868 5872 5879 5884 5889 5893 5898 5902 5906 5909 5906 5908 5909 5910 5910 5910 5910 5912 5913 5914 5915 5916 5918 5918 5919 5919 5920 5920 5922 5923 5924 5925 5926 5926 5926 5927 5926 5926 5926 5925 5925 5924 5924 5924
5864 5871 5873 5876 5882 5887 5892 5896 5902 5907 5904 5905 5906 5907 5908 5908 5908 5909 5910 5912 5913 5915 5916 5917 5918 5918 5918 5919 5920 5921 5922 5923 5924 5924 5925 5925 5925 5924 5924 5923 5922 5921 5921 5920
5856 5861 5864 5870 5875 5882 5887 5894 5897 5901 5900 5902 5904 5909 5908 5907 5907 5908 5909 5910 5912 5913 5914 5914 5915 5916 5917 5918 5918 5919 5920 5921 5922 5923 5923 5923 5923 5922 5922 5921 5920 5918 5918 5917
5849 5855 5859 5862 5869 5876 5884 5888 5890 5895 5896 5900 5899 5901 5906 5905 5906 5907 5907 5908 5909 5910 5911 5912 5913 5914 5914 5916 5916 5917 5918 5919 5920 5921 5921 5920 5920 5919 5918 5917 5916 5916 5915 5915
5839 5846 5849 5857 5863 5870 5878 5877 5881 5885 5891 5891 5897 5896 5899 5902 5904 5904 5904 5903 5905 5906 5907 5908 5909 5910 5910 5912 5913 5914 5915 5916 5917 5917 5917 5917 5916 5915 5914 5914 5913 5913 5911 5910
5830 5832 5842 5848 5852 5860 5865 5871 5874 5877 5878 5882 5892 5889 5893 5898 5901 5902 5902 5902 5901 5901 5903 5904 5906 5907 5907 5908 5909 5910 5911 5913 5914 5914 5913 5913 5912 5911 5909 5909 5908 5907 5905 5904
5819 5820 5830 5835 5840 5851 5854 5863 5865 5869 5874 5879 5881 5877 5886 5894 5894 5895 5897 5898 5898 5899 5901 5903 5904 5905 5905 5905 5906 5906 5907 5908 5909 5910 5910 5909 5907 5906 5906 5905 5905 5904 5903 5901
5808 5813 5820 5825 5833 5841 5848 5845 5862 5870 5872 5874 5876 5876 5880 5886 5887 5889 5892 5895 5896 5898 5899 5900 5901 5902 5902 5903 5902 5901 5901 5902 5905 5905 5906 5906 5903 5903 5902 5902 5902 5901 5899 5895
5797 5801 5808 5813 5821 5830 5835 5849 5850 5854 5861 5863 5868 5872 5875 5879 5883 5885 5888 5891 5894 5894 5895 5896 5897 5898 5899 5900 5900 5898 5897 5898 5900 5901 5902 5901 5899 5899 5898 5897 5896 5896 5893 5891
5788 5791 5799 5801 5805 5818 5824 5827 5834 5849 5851 5856 5860 5863 5869 5873 5876 5880 5884 5888 5890 5890 5891 5892 5893 5893 5895 5896 5896 5896 5895 5894 5896 5897 5897 5895 5896 5895 5894 5893 5891 5891 5891 5884
5777 5781 5787 5791 5801 5807 5815 5819 5828 5831 5838 5843 5851 5858 5866 5867 5871 5874 5877 5880 5882 5884 5887 5887 5888 5889 5891 5892 5892 5892 5892 5892 5893 5892 5892 5892 5892 5891 5889 5889 5887 5885 5882 5876
5767 5770 5776 5784 5788 5791 5799 5806 5817 5823 5833 5831 5838 5845 5857 5855 5862 5867 5871 5874 5875 5877 5880 5882 5883 5884 5885 5886 5887 5888 5887 5888 5887 5887 5887 5888 5887 5885 5884 5883 5881 5879 5874 5872
5757 5761 5766 5774 5782 5788 5788 5794 5803 5813 5814 5823 5825 5840 5845 5848 5851 5859 5863 5867 5870 5871 5874 5876 5878 5879 5879 5880 5882 5883 5883 5882 5882 5882 5882 5882 5881 5878 5877 5877 5875 5873 5869 5865
5748 5753 5757 5764 5774 5780 5783 5784 5791 5794 5802 5807 5821 5824 5832 5839 5842 5849 5854 5858 5861 5864 5868 5871 5872 5873 5874 5874 5875 5876 5876 5877 5876 5877 5877 5877 5875 5873 5872 5871 5869 5866 5864 5861
5737 5743 5749 5754 5762 5768 5773 5777 5780 5783 5791 5795 5805 5808 5822 5827 5833 5837 5844 5849 5852 5857 5860 5864 5866 5867 5868 5869 5869 5869 5870 5871 5871 5872 5872 5872 5870 5868 5866 5864 5862 5857 5855 5854
5726 5732 5739 5744 5752 5758 5760 5766 5772 5774 5778 5785 5786 5798 5810 5815 5820 5828 5835 5840 5844 5849 5854 5855 5859 5861 5862 5863 5862 5863 5864 5865 5866 5866 5866 5865 5864 5862 5859 5857 5855 5852 5848 5843
5715 5723 5731 5738 5746 5746 5751 5759 5762 5764 5768 5773 5779 5788 5792 5801 5810 5817 5823 5828 5833 5839 5844 5847 5849 5852 5855 5855 5855 5856 5857 5860 5860 5861 5861 5858 5858 5856 5853 5849 5846 5842 5838 5834
5705 5713 5722 5728 5737 5743 5745 5746 5750 5753 5756 5762 5767 5774 5783 5788 5794 5801 5810 5817 5823 5828 5833 5838 5840 5842 5846 5847 5848 5848 5852 5853 5852 5852 5851 5849 5847 5845 5842 5838 5833 5832 5828 5824
5695 5704 5712 5721 5727 5732 5734 5733 5740 5744 5744 5753 5757 5762 5771 5778 5780 5794 5800 5809 5813 5818 5823 5828 5831 5834 5836 5838 5840 5842 5843 5843 5843 5842 5840 5838 5836 5834 5831 5827 5824 5822 5818 5816
5684 5693 5700 5709 5717 5725 5719 5726 5733 5736 5744 5742 5748 5754 5760 5765 5775 5781 5790 5798 5803 5809 5814 5818 5822 5825 5827 5829 5831 5832 5832 5832 5831 5830 5829 5827 5824 5823 5823 5819 5817 5811 5808 5806
5679 5687 5693 5705 5705 5711 5709 5719 5727 5730 5734 5735 5739 5744 5749 5756 5764 5772 5780 5788 5793 5800 5805 5809 5813 5816 5819 5820 5821 5821 5823 5822 5820 5819 5817 5815 5814 5813 5810 5808 5805 5801 5797 5794
5671 5680 5691 5690 5697 5698 5707 5711 5717 5721 5726 5729 5733 5737 5741 5748 5757 5766 5773 5780 5785 5790 5795 5799 5803 5806 5808 5809 5811 5810 5809 5810 5809 5808 5806 5804 5804 5802 5797 5792 5788 5786 5785 5781
5660 5669 5677 5685 5687 5691 5697 5701 5707 5709 5717 5721 5726 5730 5735 5741 5748 5756 5764 5771 5777 5782 5785 5789 5793 5796 5797 5798 5798 5798 5798 5797 5796 5796 5794 5791 5789 5789 5782 5778 5775 5773 5772 5769
5652 5664 5669 5673 5679 5685 5689 5692 5698 5703 5708 5712 5718 5723 5728 5735 5742 5749 5756 5761 5766 5771 5775 5779 5782 5784 5786 5787 5787 5787 5786 5785 5784 5784 5782 5779 5776 5774 5769 5766 5763 5762 5760 5756
5650 5655 5663 5664 5673 5678 5681 5683 5686 5693 5699 5703 5710 5716 5721 5727 5734 5740 5746 5752 5756 5760 5762 5767 5770 5771 5773 5774 5774 5774 5773 5771 5771 5770 5767 5766 5763 5760 5755 5753 5752 5749 5746 5742